Tracking 25995 objects as of 19-Aug-2022
HD Live streaming from Space Station
objects crossing your sky now

DMSP 5D-3 F16 DEB

Track DMSP 5D-3 F16 DEB now!
10-day predictions


NORAD ID: 28056
Int'l Code: 2003-048C
Perigee: 821.3 km
Apogee: 824.3 km
Inclination: 98.7 °
Period: 101.2 minutes
Semi major axis: 7193 km
RCS: 0.072 m2 (small)
Launch date: October 18, 2003
Source: United States (US)
Launch site: AIR FORCE WESTERN TEST RANGE (AFWTR)

Note: This is SATELLITE DEBRIS
aabbcc
Your satellite tracking list
Your tracking list is empty




NASA's NSSDC Master Catalog

Two Line Element Set (TLE):
1 28056U 03048C   22231.44420066  .00001003  00000-0  46589-3 0  9991
2 28056  98.7351 218.1951 0002076 331.4076  28.6988 14.22875078975008
Source of the keplerian elements: AFSPC